• In Hungary
  • List of Countries
  • For 7 days
  • Water Temperature
  • Satellite Maps
  • Weather Map
  • News
  • Weather Widgets
  • user-avatar
    Login

    Hourly Weather Krzak

    Today, 20 September, Thursday

    Time Temperature Precipitation Wind Pressure Humidity
    00:00 +17°C° 0 mm 2 mps 748 mmHg 73%
    01:00 +17°C° 0 mm 2 mps 748 mmHg 75%
    02:00 +16°C° 0 mm 1 mps 747 mmHg 76%
    03:00 +16°C° 0 mm 1 mps 747 mmHg 77%
    04:00 +16°C° 0 mm 1 mps 747 mmHg 78%
    05:00 +15°C° 0 mm 1 mps 747 mmHg 79%
    06:00 +16°C° 0 mm 1 mps 748 mmHg 77%
    07:00 +18°C° 0 mm 1 mps 748 mmHg 74%
    08:00 +19°C° 0 mm 1 mps 748 mmHg 71%
    09:00 +21°C° 0 mm 1 mps 748 mmHg 65%
    10:00 +23°C° 0 mm 2 mps 748 mmHg 58%
    11:00 +25°C° 0 mm 2 mps 748 mmHg 51%
    12:00 +26°C° 0 mm 2 mps 748 mmHg 48%
    13:00 +27°C° 0 mm 1 mps 748 mmHg 45%
    14:00 +28°C° 0 mm 1 mps 748 mmHg 43%
    15:00 +27°C° 0 mm 1 mps 747 mmHg 45%
    16:00 +27°C° 0 mm 1 mps 747 mmHg 47%
    17:00 +27°C° 0 mm 1 mps 747 mmHg 50%
    18:00 +25°C° 0 mm 1 mps 747 mmHg 54%
    19:00 +23°C° 0 mm 1 mps 747 mmHg 58%
    20:00 +21°C° 0 mm 1 mps 747 mmHg 62%
    21:00 +20°C° 0 mm 1 mps 747 mmHg 64%
    22:00 +20°C° 0 mm 1 mps 747 mmHg 66%
    23:00 +19°C° 0 mm 1 mps 747 mmHg 68%

    Tomorrow, 21 September, Friday

    Time Temperature Precipitation Wind Pressure Humidity
    00:00 +19°C° 0 mm 1 mps 747 mmHg 69%
    01:00 +18°C° 0 mm 1 mps 746 mmHg 71%
    02:00 +18°C° 0 mm 1 mps 746 mmHg 73%
    03:00 +18°C° 0 mm 1 mps 746 mmHg 74%
    04:00 +16°C° 0 mm 1 mps 746 mmHg 76%
    05:00 +16°C° 0 mm 1 mps 746 mmHg 78%
    06:00 +18°C° 0 mm 1 mps 746 mmHg 76%
    07:00 +17°C° 0 mm 2 mps 746 mmHg 74%
    08:00 +18°C° 0 mm 2 mps 746 mmHg 73%
    09:00 +20°C° 0 mm 2 mps 746 mmHg 67%
    10:00 +22°C° 0 mm 3 mps 746 mmHg 62%
    11:00 +25°C° 0 mm 3 mps 745 mmHg 57%
    12:00 +26°C° 0 mm 4 mps 745 mmHg 54%
    13:00 +27°C° 0 mm 4 mps 744 mmHg 51%
    14:00 +27°C° 0 mm 4 mps 744 mmHg 49%
    15:00 +27°C° 0 mm 4 mps 744 mmHg 51%
    16:00 +27°C° 0 mm 3 mps 743 mmHg 52%
    17:00 +26°C° 0 mm 3 mps 743 mmHg 54%
    18:00 +25°C° 0 mm 3 mps 743 mmHg 57%
    19:00 +22°C° 0 mm 4 mps 743 mmHg 61%
    20:00 +21°C° 0 mm 4 mps 742 mmHg 64%
    21:00 +20°C° 0 mm 4 mps 742 mmHg 64%
    22:00 +20°C° 0 mm 4 mps 742 mmHg 63%
    23:00 +20°C° 0 mm 5 mps 742 mmHg 63%

    Day after tomorrow, 22 September, Saturday

    Time Temperature Precipitation Wind Pressure Humidity
    00:00 +19°C° 0 mm 4 mps 742 mmHg 63%
    01:00 +19°C° 0 mm 4 mps 742 mmHg 63%
    02:00 +19°C° 0 mm 4 mps 741 mmHg 63%
    03:00 +17°C° 0 mm 5 mps 742 mmHg 64%
    04:00 +17°C° 0 mm 5 mps 742 mmHg 65%
    05:00 +17°C° 0 mm 5 mps 743 mmHg 66%
    06:00 +16°C° 0.3 mm 5 mps 743 mmHg 70%
    07:00 +15°C° 0.3 mm 5 mps 744 mmHg 75%
    08:00 +14°C° 0.3 mm 5 mps 745 mmHg 80%
    09:00 +13°C° 0.3 mm 4 mps 746 mmHg 80%
    10:00 +13°C° 0.3 mm 4 mps 746 mmHg 80%
    11:00 +13°C° 0.3 mm 3 mps 747 mmHg 80%
    12:00 +12°C° 1 mm 3 mps 747 mmHg 81%
    13:00 +12°C° 1 mm 3 mps 747 mmHg 82%
    14:00 +12°C° 1 mm 3 mps 747 mmHg 83%
    15:00 +12°C° 0.4 mm 3 mps 747 mmHg 82%
    16:00 +12°C° 0.4 mm 3 mps 747 mmHg 82%
    17:00 +12°C° 0.4 mm 3 mps 747 mmHg 81%
    18:00 +11°C° 0 mm 3 mps 747 mmHg 84%
    19:00 +10°C° 0 mm 3 mps 747 mmHg 87%
    20:00 +10°C° 0 mm 3 mps 747 mmHg 90%
    21:00 +9°C° 0 mm 3 mps 747 mmHg 89%
    22:00 +9°C° 0 mm 3 mps 747 mmHg 88%
    23:00 +9°C° 0 mm 3 mps 747 mmHg 87%

    23 September, Sunday

    Time Temperature Precipitation Wind Pressure Humidity
    00:00 +9°C° 0 mm 3 mps 747 mmHg 87%
    01:00 +9°C° 0 mm 3 mps 747 mmHg 86%
    02:00 +8°C° 0 mm 3 mps 747 mmHg 86%
    03:00 +8°C° 0 mm 3 mps 747 mmHg 85%
    04:00 +8°C° 0 mm 3 mps 747 mmHg 84%
    05:00 +8°C° 0 mm 3 mps 747 mmHg 82%
    06:00 +9°C° 0 mm 3 mps 747 mmHg 80%
    07:00 +9°C° 0 mm 3 mps 747 mmHg 77%
    08:00 +10°C° 0 mm 4 mps 747 mmHg 74%
    09:00 +12°C° 0 mm 4 mps 747 mmHg 67%
    10:00 +14°C° 0 mm 4 mps 747 mmHg 60%
    11:00 +16°C° 0 mm 5 mps 746 mmHg 54%
    12:00 +16°C° 0 mm 5 mps 746 mmHg 51%
    13:00 +17°C° 0 mm 5 mps 745 mmHg 49%
    14:00 +17°C° 0 mm 5 mps 745 mmHg 46%
    15:00 +17°C° 0 mm 5 mps 744 mmHg 49%
    16:00 +18°C° 0 mm 4 mps 743 mmHg 53%
    17:00 +17°C° 0 mm 3 mps 743 mmHg 56%
    18:00 +17°C° 0 mm 4 mps 742 mmHg 58%
    19:00 +15°C° 0 mm 4 mps 741 mmHg 61%
    20:00 +15°C° 0 mm 5 mps 740 mmHg 63%
    21:00 +14°C° 0.4 mm 6 mps 739 mmHg 69%
    22:00 +14°C° 0.4 mm 6 mps 738 mmHg 75%
    23:00 +14°C° 0.4 mm 7 mps 737 mmHg 81%

    24 September, Monday

    Time Temperature Precipitation Wind Pressure Humidity
    00:00 +15°C° 0.4 mm 8 mps 736 mmHg 75%
    01:00 +15°C° 0.4 mm 9 mps 735 mmHg 69%
    02:00 +16°C° 0.4 mm 9 mps 734 mmHg 63%
    03:00 +16°C° 0.4 mm 10 mps 733 mmHg 66%
    04:00 +16°C° 0.4 mm 10 mps 732 mmHg 68%
    05:00 +17°C° 0.4 mm 10 mps 731 mmHg 71%
    06:00 +16°C° 1 mm 11 mps 731 mmHg 73%
    07:00 +14°C° 1 mm 12 mps 731 mmHg 74%
    08:00 +14°C° 1 mm 12 mps 731 mmHg 75%
    09:00 +13°C° 0.1 mm 12 mps 733 mmHg 74%
    10:00 +12°C° 0.1 mm 11 mps 735 mmHg 72%
    11:00 +9°C° 0.1 mm 11 mps 736 mmHg 71%
    12:00 +9°C° 0.2 mm 10 mps 738 mmHg 70%
    13:00 +9°C° 0.2 mm 10 mps 739 mmHg 69%
    14:00 +9°C° 0.2 mm 10 mps 740 mmHg 67%
    15:00 +9°C° 0.1 mm 10 mps 741 mmHg 66%
    16:00 +9°C° 0.1 mm 10 mps 742 mmHg 65%
    17:00 +10°C° 0.1 mm 9 mps 743 mmHg 64%
    18:00 +10°C° 0.1 mm 8 mps 744 mmHg 68%
    19:00 +9°C° 0.1 mm 8 mps 744 mmHg 71%
    20:00 +9°C° 0.1 mm 7 mps 745 mmHg 75%
    21:00 +8°C° 0 mm 6 mps 746 mmHg 76%
    22:00 +7°C° 0 mm 6 mps 747 mmHg 77%
    23:00 +7°C° 0 mm 5 mps 747 mmHg 78%

    25 September, Tuesday

    Time Temperature Precipitation Wind Pressure Humidity
    00:00 +6°C° 0 mm 5 mps 748 mmHg 78%
    01:00 +6°C° 0 mm 4 mps 748 mmHg 78%
    02:00 +5°C° 0 mm 4 mps 748 mmHg 78%
    03:00 +5°C° 0 mm 4 mps 749 mmHg 78%
    04:00 +5°C° 0 mm 5 mps 749 mmHg 78%
    05:00 +5°C° 0 mm 5 mps 750 mmHg 78%
    06:00 +5°C° 0 mm 5 mps 750 mmHg 78%
    07:00 +5°C° 0 mm 6 mps 750 mmHg 77%
    08:00 +5°C° 0 mm 6 mps 750 mmHg 77%
    09:00 +7°C° 0.1 mm 6 mps 750 mmHg 73%
    10:00 +8°C° 0.1 mm 6 mps 750 mmHg 69%
    11:00 +9°C° 0.1 mm 7 mps 751 mmHg 65%
    12:00 +10°C° 0.2 mm 7 mps 750 mmHg 61%
    13:00 +10°C° 0.2 mm 6 mps 750 mmHg 57%
    14:00 +11°C° 0.2 mm 6 mps 750 mmHg 54%
    15:00 +11°C° 0.1 mm 6 mps 750 mmHg 55%
    16:00 +12°C° 0.1 mm 5 mps 750 mmHg 57%
    17:00 +10°C° 0.1 mm 5 mps 750 mmHg 59%
    18:00 +10°C° 0 mm 4 mps 750 mmHg 64%
    19:00 +9°C° 0 mm 3 mps 750 mmHg 69%
    20:00 +8°C° 0 mm 2 mps 750 mmHg 74%
    21:00 +8°C° 0 mm 2 mps 751 mmHg 76%
    22:00 +7°C° 0 mm 3 mps 751 mmHg 79%
    23:00 +7°C° 0 mm 3 mps 751 mmHg 81%
    Show more